Total_Precipitation_Accumulation
0.02 0.07 0.23 0.34 0.31 0.28 0.27 0.25 0.23 0.19 0.18 0.21 0.26 0.27 0.28 0.28 0.26 0.25 0.26 0.27 0.29 0.31 0.35 0.38 0.37 0.35 0.32 0.30 0.28 0.26 0.27 0.32 0.33 0.32 0.33 0.38 0.41 0.38 0.35 0.32 0.23 0.28 0.45
0.02 0.08 0.21 0.27 0.26 0.26 0.24 0.21 0.18 0.15 0.14 0.18 0.21 0.21 0.20 0.22 0.24 0.24 0.25 0.26 0.26 0.30 0.35 0.38 0.34 0.30 0.28 0.25 0.22 0.20 0.20 0.21 0.24 0.25 0.22 0.21 0.35 0.41 0.35 0.36 0.33 0.51 0.60
0.01 0.06 0.15 0.21 0.23 0.23 0.22 0.19 0.15 0.13 0.13 0.16 0.17 0.17 0.16 0.18 0.19 0.21 0.22 0.23 0.23 0.24 0.25 0.28 0.28 0.23 0.20 0.18 0.17 0.16 0.17 0.15 0.15 0.17 0.17 0.12 0.29 0.49 0.45 0.42 0.40 0.58 0.59
0.02 0.05 0.09 0.17 0.21 0.22 0.20 0.18 0.16 0.15 0.14 0.17 0.17 0.15 0.16 0.18 0.18 0.19 0.19 0.18 0.19 0.19 0.18 0.19 0.17 0.15 0.13 0.11 0.12 0.13 0.14 0.13 0.10 0.09 0.05 0.07 0.27 0.51 0.53 0.48 0.45 0.48 0.53
0.02 0.05 0.10 0.18 0.20 0.20 0.19 0.17 0.16 0.15 0.16 0.20 0.19 0.16 0.17 0.18 0.19 0.19 0.18 0.16 0.13 0.11 0.12 0.13 0.12 0.13 0.12 0.11 0.10 0.12 0.13 0.11 0.09 0.05 0.02 0.05 0.20 0.44 0.43 0.43 0.40 0.43 0.47
0.02 0.04 0.09 0.17 0.20 0.19 0.19 0.17 0.17 0.17 0.20 0.23 0.21 0.19 0.18 0.20 0.18 0.18 0.16 0.13 0.10 0.09 0.09 0.10 0.10 0.13 0.13 0.13 0.14 0.18 0.20 0.17 0.08 0.02 0.02 0.04 0.11 0.29 0.37 0.43 0.42 0.40 0.37
0.03 0.04 0.09 0.17 0.21 0.20 0.20 0.18 0.17 0.19 0.22 0.23 0.22 0.22 0.22 0.22 0.21 0.18 0.14 0.12 0.11 0.10 0.09 0.09 0.09 0.11 0.14 0.15 0.16 0.21 0.28 0.23 0.11 0.13 0.09 0.07 0.10 0.20 0.28 0.39 0.43 0.41 0.40
0.04 0.06 0.12 0.22 0.24 0.23 0.23 0.21 0.20 0.22 0.24 0.23 0.23 0.24 0.23 0.23 0.20 0.17 0.15 0.14 0.14 0.12 0.11 0.08 0.07 0.08 0.11 0.14 0.16 0.20 0.24 0.16 0.14 0.21 0.24 0.20 0.18 0.25 0.30 0.36 0.40 0.43 0.46
0.05 0.08 0.14 0.21 0.25 0.29 0.29 0.26 0.24 0.25 0.27 0.26 0.26 0.25 0.24 0.23 0.22 0.19 0.16 0.15 0.15 0.13 0.12 0.09 0.07 0.06 0.07 0.09 0.12 0.16 0.19 0.15 0.21 0.35 0.30 0.33 0.28 0.35 0.39 0.36 0.37 0.43 0.47
0.09 0.11 0.16 0.20 0.23 0.27 0.30 0.29 0.27 0.28 0.29 0.29 0.29 0.29 0.25 0.23 0.24 0.22 0.18 0.16 0.15 0.14 0.14 0.11 0.09 0.08 0.07 0.06 0.07 0.09 0.12 0.11 0.15 0.25 0.37 0.32 0.31 0.45 0.52 0.47 0.41 0.41 0.47
0.16 0.17 0.20 0.23 0.24 0.26 0.30 0.29 0.30 0.31 0.32 0.34 0.33 0.30 0.30 0.26 0.25 0.22 0.18 0.17 0.15 0.15 0.14 0.12 0.09 0.08 0.07 0.03 0.03 0.04 0.05 0.03 0.11 0.22 0.29 0.26 0.33 0.49 0.61 0.57 0.54 0.47 0.46
0.18 0.21 0.23 0.25 0.28 0.31 0.33 0.35 0.35 0.34 0.33 0.34 0.30 0.28 0.29 0.26 0.24 0.21 0.19 0.19 0.18 0.18 0.18 0.16 0.11 0.07 0.05 0.03 0.03 0.07 0.02 0.00 0.01 0.05 0.10 0.15 0.23 0.37 0.56 0.63 0.64 0.61 0.57
0.16 0.21 0.26 0.29 0.31 0.34 0.36 0.36 0.34 0.34 0.31 0.31 0.28 0.27 0.28 0.27 0.25 0.22 0.21 0.21 0.20 0.18 0.17 0.19 0.18 0.15 0.15 0.13 0.10 0.12 0.07 0.04 0.03 0.02 0.03 0.08 0.12 0.19 0.30 0.45 0.63 0.70 0.72
0.17 0.23 0.27 0.33 0.39 0.40 0.38 0.37 0.35 0.32 0.30 0.27 0.26 0.24 0.24 0.23 0.23 0.21 0.19 0.18 0.19 0.17 0.14 0.12 0.13 0.17 0.21 0.21 0.16 0.12 0.12 0.13 0.09 0.07 0.04 0.08 0.10 0.12 0.18 0.27 0.44 0.63 0.75
0.17 0.24 0.30 0.37 0.40 0.44 0.46 0.40 0.37 0.34 0.30 0.28 0.28 0.25 0.21 0.20 0.19 0.18 0.19 0.20 0.18 0.16 0.14 0.11 0.07 0.07 0.09 0.13 0.15 0.12 0.12 0.11 0.12 0.14 0.12 0.12 0.11 0.11 0.13 0.19 0.29 0.47 0.64
0.19 0.27 0.33 0.40 0.41 0.43 0.47 0.43 0.38 0.36 0.35 0.31 0.29 0.26 0.24 0.21 0.19 0.18 0.18 0.18 0.18 0.17 0.15 0.12 0.09 0.05 0.03 0.02 0.03 0.05 0.10 0.12 0.15 0.16 0.14 0.14 0.13 0.11 0.12 0.15 0.21 0.34 0.52
0.20 0.28 0.36 0.40 0.44 0.43 0.45 0.47 0.44 0.39 0.38 0.35 0.30 0.28 0.27 0.24 0.21 0.20 0.20 0.19 0.17 0.17 0.16 0.14 0.12 0.09 0.05 0.03 0.01 0.00 0.01 0.03 0.07 0.12 0.12 0.14 0.17 0.14 0.13 0.14 0.18 0.22 0.34
0.21 0.29 0.40 0.43 0.45 0.45 0.44 0.50 0.48 0.45 0.40 0.38 0.36 0.31 0.28 0.26 0.23 0.22 0.22 0.21 0.20 0.20 0.19 0.16 0.12 0.10 0.07 0.04 0.02 0.01 0.00 0.00 0.00 0.02 0.04 0.09 0.14 0.17 0.16 0.16 0.18 0.20 0.23
0.21 0.29 0.41 0.47 0.45 0.47 0.47 0.48 0.50 0.49 0.47 0.42 0.40 0.37 0.32 0.29 0.27 0.25 0.23 0.22 0.22 0.22 0.21 0.19 0.14 0.10 0.08 0.05 0.03 0.01 0.00 0.00 0.00 0.00 0.00 0.02 0.06 0.11 0.15 0.17 0.17 0.18 0.18
0.22 0.31 0.41 0.51 0.51 0.52 0.56 0.54 0.54 0.56 0.50 0.46 0.43 0.41 0.36 0.32 0.30 0.28 0.27 0.24 0.24 0.25 0.23 0.20 0.15 0.12 0.09 0.06 0.04 0.02 0.01 0.00 0.00 0.00 0.00 0.00 0.02 0.05 0.10 0.13 0.15 0.15 0.16
0.23 0.31 0.42 0.51 0.61 0.61 0.62 0.59 0.53 0.52 0.51 0.47 0.43 0.42 0.42 0.37 0.32 0.30 0.30 0.30 0.28 0.26 0.24 0.21 0.18 0.16 0.13 0.08 0.06 0.05 0.03 0.01 0.00 0.00 0.00 0.00 0.00 0.02 0.06 0.11 0.13 0.14 0.15
0.21 0.25 0.36 0.48 0.58 0.62 0.57 0.57 0.52 0.49 0.49 0.49 0.46 0.44 0.45 0.43 0.36 0.31 0.30 0.30 0.30 0.29 0.25 0.22 0.19 0.19 0.18 0.12 0.10 0.11 0.08 0.04 0.02 0.01 0.00 0.00 0.00 0.01 0.02 0.06 0.12 0.13 0.13
0.24 0.24 0.28 0.40 0.54 0.60 0.58 0.61 0.66 0.64 0.63 0.58 0.52 0.47 0.46 0.46 0.41 0.34 0.30 0.29 0.29 0.29 0.28 0.25 0.22 0.20 0.20 0.16 0.11 0.19 0.28 0.18 0.06 0.01 0.01 0.00 0.01 0.01 0.01 0.02 0.06 0.11 0.14
0.24 0.26 0.27 0.35 0.48 0.61 0.60 0.60 0.64 0.67 0.62 0.54 0.49 0.46 0.47 0.49 0.50 0.42 0.36 0.32 0.28 0.27 0.27 0.26 0.24 0.22 0.23 0.22 0.14 0.12 0.18 0.22 0.25 0.13 0.02 0.03 0.04 0.03 0.02 0.02 0.03 0.07 0.13
0.29 0.33 0.31 0.37 0.45 0.60 0.60 0.55 0.57 0.56 0.58 0.56 0.56 0.53 0.52 0.53 0.54 0.51 0.44 0.40 0.35 0.29 0.26 0.26 0.25 0.24 0.25 0.25 0.21 0.17 0.12 0.10 0.14 0.24 0.12 0.05 0.08 0.09 0.07 0.05 0.06 0.09 0.12
0.32 0.41 0.39 0.41 0.45 0.54 0.64 0.58 0.56 0.55 0.56 0.61 0.63 0.61 0.59 0.58 0.56 0.54 0.49 0.41 0.37 0.34 0.30 0.28 0.26 0.24 0.22 0.21 0.22 0.21 0.21 0.22 0.17 0.21 0.20 0.08 0.04 0.04 0.06 0.09 0.09 0.12 0.16